Prox-1
1 44339U 19036A   25046.80991687  .00020001  00000-0  27944-2 0  9998
2 44339  23.9980  87.1439 0007733 209.2637 150.7426 14.76086760301258
SONATE
1 44400U 19038Q   25046.29635907  .00084001  00000-0  10761-2 0  9991
2 44400  97.7093  61.2020 0007189 322.8963  37.1794 15.58873058311600
Taurus 1
1 44530U 19059C   25046.77401472  .00014188  00000-0  27762-2 0  9997
2 44530  98.5915 181.0891 0009107  25.2261 334.9383 14.62919879287284
Duchifat 3
1 44854U 19089C   25046.17549697  .00049347  00000-0  14534-2 0  9993
2 44854  36.9500 356.1130 0009931 306.4922  53.4915 15.34018136285360
TO-108
1 44881U 19093C   25046.78420783  .00002031  00000-0  24327-3 0  9990
2 44881  97.8029 124.7973 0012753 242.4497 117.5422 14.85136251279180
FloripaSat 1
1 44885U 19093G   25046.75518207  .00010831  00000-0  96489-3 0  9995
2 44885  97.8207 134.2863 0010757 224.2832 135.7529 14.96159282279719
RS-44
1 44909U 19096E   25046.80139493  .00000029  00000-0  71640-4 0  9998
2 44909  82.5226 302.8956 0216939 201.3706 157.8232 12.79738315240184
UPMSat 2
1 46276U 20061E   25046.43261330  .00055817  00000-0  89675-3 0  9997
2 46276  97.2623 118.2621 0000120 309.8085  50.3158 15.52846542247662
SALSAT
1 46495U 20068K   25046.84200440  .00012611  00000-0  58934-3 0  9996
2 46495  97.8499  19.9215 0011787 185.3936 174.7173 15.19884116241238
CubeSX-Sirius-HSE
1 47951U 21022V   25046.79973669  .00091601  00000-0  14768-2 0  9991
2 47951  97.4336 314.1231 0008193  13.6292 346.5180 15.52570478215985
CubeSX-HSE
1 47952U 21022W   25046.77960193  .00097788  00000-0  15481-2 0  9993
2 47952  97.4339 314.2816 0007830   8.0016 352.1360 15.53057777215995
KSU-Cubesat
1 47954U 21022Y   25046.71403391  .00271922  00000-0  19483-2 0  9991
2 47954  97.4306 318.3010 0004951  42.1318 318.0326 15.72886514215967
GRBAlpha
1 47959U 21022AD  25046.80584865  .00090307  00000-0  14384-2 0  9993
2 47959  97.4323 314.4686 0008167  12.7048 347.4409 15.52913434214825
Orbicraft-Zorkiy
1 47960U 21022AE  25046.79819188  .00149202  00000-0  15781-2 0  9993
2 47960  97.4319 317.5477 0005862  21.0436 339.1063 15.63661767215687
TUBIN
1 48900U 21059X   25046.72225434  .00049569  00000-0  94904-3 0  9996
2 48900  97.6665 207.8364 0005139 298.3293  61.7437 15.47885907202350
LEDSAT
1 49069U 21073D   25046.74563724  .00058638  00000-0  12554-2 0  9995
2 49069  97.4034 124.8753 0013086 134.1342 226.0985 15.44498845193774
CUTE
1 49263U 21088D   25046.77477215  .00058034  00000-0  13915-2 0  9991
2 49263  97.4646 120.1159 0008306 297.0938  62.9461 15.41167676186867
TeikyoSat 4
1 49396U 21102B   25046.56495995  .00003680  00000-0  25085-3 0  9996
2 49396  97.4275  89.0632 0013444 157.0573 203.1258 15.06776350179377
Z-Sat
1 49399U 21102E   25046.85153838  .00008051  00000-0  46050-3 0  9990
2 49399  97.3980  91.7882 0019886 134.9560 225.3288 15.12751660179772
KOSEN 1
1 49402U 21102H   25046.65472315  .00012209  00000-0  60541-3 0  9998
2 49402  97.3890  94.2180 0018157 115.3346 244.9771 15.17725546179998
HO-113
1 50466U 21131B   25046.79214501  .00001192  00000-0  38803-3 0  9993
2 50466  98.5131 136.7286 0005200 114.7842 245.3888 14.40537007165064
IRIS-A
1 51044U 22002BN  25046.11421823  .00091715  00000-0  12220-2 0  9991
2 51044  97.3448 121.1124 0004108 236.0729 124.0136 15.57815659171867
Foresail-1
1 52766U 22057AL  25046.33743913  .00085909  00000-0  11621-2 0  9996
2 52766  97.5982 187.8833 0006353 325.6102  34.4740 15.57416498151933
SNUGLITE 2
1 52899U 22065F   25046.33938111  .00002854  00000-0  57043-3 0  9995
2 52899  98.1480 189.5898 0008551 110.2130 249.9992 14.62620155139784
IO-117
1 53106U 22080B   25042.50223640 -.00000003  00000-0  00000-0 0  9996
2 53106  70.1392 109.3763 0008154  50.6584 309.4797  6.42557620 60646
FO-118
1 54684U 22167C   25046.73143603  .00510369  00000-0  20386-2 0  9994
2 54684  97.6079 210.3642 0008658 308.6389  51.4105 15.85276947121979
SO-120
1 56992U 23084BU  25042.76759540  .17342116  26494-5  33638-3 0  9995
2 56992  97.5047 178.6720 0014759 276.3055  83.6566 16.46134597 93271
UmKA 1 (RS40S)
1 57172U 23091G   25046.82590644  .00010823  00000-0  61254-3 0  9997
2 57172  97.5760 102.8618 0015283  12.2926 347.8675 15.13123658 90267
CubeBel-2 (EU11S)
1 57175U 23091K   25046.84587143  .00015616  00000-0  81631-3 0  9998
2 57175  97.5758 103.4382 0013416  22.2582 337.9230 15.15887033 90305
VERONIKA
1 58261U 23174F   25046.79585767  .00071611  00000-0  15266-2 0  9998
2 58261  97.4279 128.4981 0007123  98.9604 261.2451 15.44633059 70989
KAFASAT
1 58317U 23174BP  25046.47796149  .00194873  00000-0  20241-2 0  9998
2 58317  97.4169 131.4581 0002570  35.6446 324.4984 15.63993062 71171
ENSO
1 58470U 23185J   25046.81098788  .00052847  00000-0  12411-2 0  9996
2 58470  97.3897 119.3944 0009130 131.0005 229.2033 15.41811055 67424
EIRSAT-1
1 58472U 23185L   25046.82784462  .00068738  00000-0  14095-2 0  9996
2 58472  97.3889 120.0938 0008007 131.4819 228.7119 15.45782425 67474
SONATE-2
1 59112U 24043Q   25046.60368037  .00025878  00000-0  89284-3 0  9995
2 59112  97.4977 176.0758 0012277 157.3621 202.8163 15.29886651 52876
MO-122
1 60209U 24125G   25046.57436834  .00026153  00000-0  89077-3 0  9999
2 60209  97.2935 259.7988 0020884 182.3339 177.7808 15.30161209 34488
GRBBeta
1 60237U 24128C   25046.28728647  .00006716  00000-0  53195-3 0  9992
2 60237  61.9923 117.5865 0040568  30.8312 329.5148 15.00856349 33035
Curium One
1 60242U 24128H   25046.53963237  .00011423  00000-0  86269-3 0  9991
2 60242  61.9828 116.3462 0040925  25.3943 334.9146 15.02142710 33086
ROBUSTA-3A
1 60243U 24128J   25046.51124431  .00010776  00000-0  82404-3 0  9992
2 60243  61.9890 116.9282 0039125  23.1556 337.1286 15.01773842 33072
CatSat
1 60246U 24125J   25046.08797060  .00015611  00000-0  57287-3 0  9992
2 60246  97.2719 259.6452 0046525 139.8107 220.6588 15.26997177 32492
HYPERVIEW-1G (RS66S)
1 61772U 24199AP  25046.79828368  .00027999  00000-0  99860-3 0  9997
2 61772  97.3719 276.2709 0014134 237.3920 122.5956 15.28763147 59539
AO-123
1 61781U 24199AY  25046.83867723  .00013428  00000-0  52690-3 0  9992
2 61781  97.3728 276.0756 0015212 238.4984 121.4768 15.25747909 59522
POEM 4 (BGS ARPIT)
1 62461U 24253C   25046.58124170  .00173166  00000-0  79373-3 0  9996
2 62461  55.2198  32.1465 0012469  56.1174 304.1061 15.82630976  7399
